Meadville, PA

2:31 PM EST on January 24, 2017 (GMT -0500)
Port Meadville

Weather History for KGKJ - September, 2013

Change the Weather History Date:

Monday, September 16, 2013

  Actual Average Record
Temperature  
Mean Temperature 55 °F -  
Max Temperature 66 °F 71 °F 91 °F (1991)
Min Temperature 46 °F 49 °F 36 °F (1966)
Degree Days  
Heating Degree Days 10    
Growing Degree Days 5 (Base 50)    
Moisture  
Dew Point 51 °F    
Average Humidity 82    
Maximum Humidity 100    
Minimum Humidity 68    
Precipitation  
Precipitation 0.02 in - - ()
Sea Level Pressure  
Sea Level Pressure 30.22 in    
Wind  
Wind Speed 5 mph (North)    
Max Wind Speed 14 mph    
Max Gust Speed 20 mph    
Visibility 9 miles    
Events Rain    
Averages and records for this station are not official NWS values.
T = Trace of Precipitation, MM = Missing Value Source: NWS Daily Summary

Daily Weather History Graph

Daily Weather History Graph

Search for Another Location

Airport or City:

Trip Planner

Search our weather history database for the weather conditions in past years. The results will help you decide how hot, cold, wet, or windy it might be!

Date:

Astronomy

Sep. 16, 2013 Rise Set
Actual Time 7:02 AM EDT 7:28 PM EDT
Civil Twilight 6:34 AM EDT 7:55 PM EDT
Nautical Twilight 6:01 AM EDT 8:28 PM EDT
Astronomical Twilight 5:28 AM EDT 9:02 PM EDT
Moon 5:37 PM EDT (9/16) 3:44 AM EDT (9/16)
Length of Visible Light 13h 21m
Length of Day
12h 25m
Waxing Gibbous, 90% of the Moon is Illuminated
Sep 16
Waxing Gibbous
Sep 19
Full
Sep 26
Last Quarter
Oct 4
New
Oct 11
First Quarter

Hourly Weather History & Observations

Time (EDT) Temp. Windchill Dew Point Humidity Pressure Visibility Wind Dir Wind Speed Gust Speed Precip Events Conditions
12:53 AM 55.0 °F - 54.0 °F 96% 30.11 in 7.0 mi NNE 5.8 mph - 0.01 in Rain Light Rain
1:53 AM 55.9 °F - 54.0 °F 93% 30.12 in 8.0 mi NE 3.5 mph - 0.00 in Rain Light Rain
2:53 AM 55.9 °F - 54.0 °F 93% 30.12 in 6.0 mi Calm Calm - 0.01 in   Overcast
3:33 AM 55.4 °F - 53.6 °F 94% 30.13 in 5.0 mi NNW 8.1 mph - N/A   Overcast
3:53 AM 54.0 °F - 52.0 °F 93% 30.12 in 8.0 mi Calm Calm - 0.00 in Rain Light Rain
4:06 AM 55.4 °F - 51.8 °F 88% 30.12 in 10.0 mi Calm Calm - 0.00 in   Overcast
4:53 AM 53.1 °F - 51.1 °F 93% 30.12 in 10.0 mi Calm Calm - 0.00 in   Overcast
5:20 AM 51.8 °F - 51.8 °F 100% 30.13 in 1.8 mi Calm Calm - N/A   Mostly Cloudy
5:39 AM 53.6 °F - 51.8 °F 94% 30.14 in 10.0 mi Calm Calm - N/A   Mostly Cloudy
5:53 AM 54.0 °F - 51.1 °F 90% 30.14 in 10.0 mi Calm Calm - N/A   Overcast
6:53 AM 54.0 °F - 51.1 °F 90% 30.16 in 10.0 mi Calm Calm - N/A   Overcast
7:53 AM 53.1 °F - 51.1 °F 93% 30.18 in 10.0 mi West 4.6 mph - N/A   Clear
8:53 AM 57.0 °F - 53.1 °F 87% 30.19 in 10.0 mi NW 3.5 mph - N/A   Clear
9:45 AM 59.0 °F - 53.6 °F 82% 30.20 in 10.0 mi NW 4.6 mph - N/A   Mostly Cloudy
9:53 AM 60.1 °F - 54.0 °F 80% 30.20 in 10.0 mi NW 3.5 mph - N/A   Mostly Cloudy
10:09 AM 60.8 °F - 53.6 °F 77% 30.21 in 10.0 mi WNW 8.1 mph - N/A   Scattered Clouds
10:53 AM 62.1 °F - 54.0 °F 75% 30.21 in 10.0 mi West 6.9 mph - N/A   Mostly Cloudy
11:00 AM 60.8 °F - 53.6 °F 77% 30.21 in 10.0 mi NW 4.6 mph - N/A   Mostly Cloudy
11:13 AM 62.6 °F - 53.6 °F 72% 30.21 in 10.0 mi WNW 9.2 mph - N/A   Mostly Cloudy
11:21 AM 60.8 °F - 53.6 °F 77% 30.22 in 10.0 mi WNW 9.2 mph - N/A   Mostly Cloudy
11:53 AM 63.0 °F - 54.0 °F 72% 30.22 in 10.0 mi North 9.2 mph - N/A   Mostly Cloudy
12:11 PM 62.6 °F - 53.6 °F 72% 30.22 in 10.0 mi NNW 8.1 mph - N/A   Mostly Cloudy
12:39 PM 62.6 °F - 53.6 °F 72% 30.23 in 10.0 mi North 10.4 mph - N/A   Overcast
12:53 PM 64.9 °F - 54.0 °F 68% 30.22 in 10.0 mi North 8.1 mph 16.1 mph N/A   Mostly Cloudy
1:53 PM 63.0 °F - 53.1 °F 70% 30.23 in 10.0 mi North 13.8 mph 18.4 mph N/A   Scattered Clouds
2:39 PM 62.6 °F - 51.8 °F 68% 30.25 in 10.0 mi North 11.5 mph 19.6 mph N/A   Mostly Cloudy
2:53 PM 61.0 °F - 52.0 °F 72% 30.25 in 10.0 mi North 10.4 mph 19.6 mph N/A   Mostly Cloudy
3:53 PM 61.0 °F - 52.0 °F 72% 30.25 in 10.0 mi NNW 13.8 mph 19.6 mph N/A   Mostly Cloudy
4:34 PM 59.0 °F - 51.8 °F 77% 30.26 in 10.0 mi North 10.4 mph 19.6 mph N/A   Overcast
4:44 PM 59.0 °F - 51.8 °F 77% 30.26 in 10.0 mi North 9.2 mph - N/A   Mostly Cloudy
4:53 PM 60.1 °F - 51.1 °F 72% 30.27 in 10.0 mi North 9.2 mph - N/A   Mostly Cloudy
5:39 PM 57.2 °F - 50.0 °F 77% 30.27 in 10.0 mi North 9.2 mph - N/A   Partly Cloudy
5:53 PM 59.0 °F - 50.0 °F 72% 30.28 in 10.0 mi NNE 11.5 mph 17.3 mph N/A   Partly Cloudy
6:11 PM 55.4 °F - 50.0 °F 82% 30.29 in 10.0 mi NNE 11.5 mph - N/A   Mostly Cloudy
6:34 PM 55.4 °F - 48.2 °F 77% 30.29 in 10.0 mi NNE 6.9 mph - N/A   Mostly Cloudy
6:53 PM 55.0 °F - 48.9 °F 80% 30.30 in 10.0 mi NE 9.2 mph - N/A   Mostly Cloudy
7:03 PM 53.6 °F - 48.2 °F 82% 30.30 in 10.0 mi NE 9.2 mph - N/A   Overcast
7:38 PM 53.6 °F - 48.2 °F 82% 30.30 in 10.0 mi NE 9.2 mph - N/A   Mostly Cloudy
7:53 PM 52.0 °F - 48.0 °F 86% 30.31 in 10.0 mi NNE 5.8 mph - N/A   Scattered Clouds
8:53 PM 50.0 °F - 46.9 °F 89% 30.32 in 10.0 mi NNE 4.6 mph - N/A   Clear
9:53 PM 48.0 °F - 46.0 °F 93% 30.34 in 10.0 mi ENE 4.6 mph - N/A   Clear
10:53 PM 46.9 °F - 44.1 °F 90% 30.35 in 10.0 mi NE 4.6 mph - N/A   Clear
11:53 PM 46.0 °F 43.1 °F 43.0 °F 89% 30.35 in 10.0 mi East 5.8 mph - N/A   Clear